| time (UTC) | temp F | wind direction | speed MPH | gust MPH | rain 1hr in | rain 24hr in | rain mn in | humidity % | barometer mb |
| 20260906161557 | 68 | 156 | 5.0 | 10.0 | 0.00 | 0.03 | 0.03 | 82 | 880.3 |
| 20260906160055 | 68 | 91 | 4.0 | 9.0 | 0.00 | 0.03 | 0.03 | 83 | 880.2 |
| 20260906154554 | 68 | 115 | 4.0 | 7.0 | 0.00 | 0.03 | 0.03 | 85 | 880.2 |
| 20260906153053 | 67 | 144 | 2.0 | 4.0 | 0.00 | 0.03 | 0.03 | 85 | 880.2 |
| 20260906151607 | 67 | 136 | 3.0 | 7.0 | 0.00 | 0.03 | 0.03 | 84 | 880.1 |
| 20260906150057 | 66 | 140 | 2.0 | 5.0 | 0.00 | 0.03 | 0.03 | 87 | 880.1 |
| 20260906144550 | 65 | 138 | 2.0 | 3.0 | 0.00 | 0.03 | 0.03 | 89 | 880.1 |
| 20260906143106 | 65 | 107 | 1.0 | 4.0 | 0.00 | 0.03 | 0.03 | 89 | 880.0 |
| 20260906141548 | 64 | 105 | 1.0 | 5.0 | 0.00 | 0.03 | 0.03 | 90 | 879.8 |
| 20260906140050 | 64 | 68 | 0.0 | 3.0 | 0.00 | 0.03 | 0.03 | 91 | 879.6 |
| 20260906134553 | 64 | 112 | 0.0 | 4.0 | 0.00 | 0.03 | 0.03 | 90 | 879.4 |
| 20260906133046 | 64 | 115 | 1.0 | 5.0 | 0.00 | 0.03 | 0.03 | 91 | 879.2 |
| 20260906131549 | 64 | 92 | 1.0 | 4.0 | 0.00 | 0.03 | 0.03 | 91 | 879.2 |
| 20260906130051 | 64 | 112 | 2.0 | 5.0 | 0.00 | 0.03 | 0.03 | 90 | 879.1 |
| 20260906124547 | 64 | 122 | 1.0 | 5.0 | 0.00 | 0.03 | 0.03 | 90 | 879.0 |
| 20260906123112 | 64 | 133 | 2.0 | 4.0 | 0.00 | 0.03 | 0.03 | 91 | 879.0 |
| 20260906121544 | 64 | 104 | 4.0 | 7.0 | 0.00 | 0.03 | 0.03 | 91 | 879.0 |
| 20260906120042 | 64 | 136 | 2.0 | 4.0 | 0.03 | 0.03 | 0.03 | 91 | 879.1 |
| 20260906114542 | 63 | 128 | 1.0 | 5.0 | 0.03 | 0.03 | 0.03 | 90 | 879.2 |
| 20260906113042 | 63 | 113 | 3.0 | 5.0 | 0.03 | 0.03 | 0.03 | 89 | 879.2 |
| 20260906111539 | 63 | 69 | 2.0 | 8.0 | 0.03 | 0.03 | 0.03 | 86 | 879.3 |
| 20260906110037 | 64 | 109 | 4.0 | 8.0 | 0.00 | 0.00 | 0.00 | 82 | 879.2 |
| 20260906104535 | 63 | 117 | 5.0 | 9.0 | 0.00 | 0.00 | 0.00 | 81 | 879.2 |
| 20260906103033 | 63 | 98 | 3.0 | 6.0 | 0.00 | 0.00 | 0.00 | 78 | 879.1 |
| 20260906101530 | 65 | 102 | 4.0 | 9.0 | 0.00 | 0.00 | 0.00 | 71 | 879.1 |
| 20260906100028 | 65 | 107 | 5.0 | 9.0 | 0.00 | 0.00 | 0.00 | 70 | 879.1 |
| 20260906094523 | 66 | 119 | 4.0 | 7.0 | 0.00 | 0.00 | 0.00 | 65 | 879.1 |
| 20260906093023 | 67 | 111 | 3.0 | 8.0 | 0.00 | 0.00 | 0.00 | 59 | 879.1 |
| 20260906091520 | 67 | 132 | 5.0 | 10.0 | 0.00 | 0.00 | 0.00 | 59 | 879.2 |
| 20260906090018 | 67 | 113 | 6.0 | 10.0 | 0.00 | 0.00 | 0.00 | 60 | 879.3 |
| 20260906084518 | 67 | 117 | 5.0 | 9.0 | 0.00 | 0.00 | 0.00 | 59 | 879.2 |
| 20260906083016 | 67 | 108 | 5.0 | 8.0 | 0.00 | 0.00 | 0.00 | 59 | 879.5 |
| 20260906081515 | 67 | 101 | 2.0 | 8.0 | 0.00 | 0.00 | 0.00 | 60 | 879.6 |
| 20260906080024 | 67 | 111 | 4.0 | 8.0 | 0.00 | 0.00 | 0.00 | 61 | 879.6 |
| 20260906074511 | 68 | 121 | 2.0 | 7.0 | 0.00 | 0.00 | 0.00 | 61 | 879.7 |
| 20260906073008 | 68 | 70 | 4.0 | 8.0 | 0.00 | 0.00 | 0.00 | 59 | 879.9 |
| 20260906071507 | 68 | 105 | 5.0 | 8.0 | 0.00 | 0.00 | 0.00 | 60 | 879.9 |
| 20260906070005 | 67 | 87 | 2.0 | 5.0 | 0.00 | 0.00 | 0.00 | 61 | 879.8 |
| 20260906064506 | 67 | 119 | 2.0 | 4.0 | 0.00 | 0.00 | 0.00 | 62 | 879.9 |
| 20260906063004 | 67 | 119 | 0.0 | 3.0 | 0.00 | 0.00 | 0.00 | 61 | 879.9 |
| 20260906061504 | 67 | 119 | 1.0 | 4.0 | 0.00 | 0.00 | 0.00 | 62 | 879.8 |
| 20260906060003 | 67 | 98 | 1.0 | 4.0 | 0.00 | 0.00 | 0.00 | 63 | 879.9 |
| 20260906054503 | 67 | 113 | 2.0 | 4.0 | 0.00 | 0.00 | 0.00 | 63 | 879.9 |
| 20260906053001 | 67 | 109 | 2.0 | 5.0 | 0.00 | 0.00 | 0.00 | 64 | 880.0 |
| 20260906051503 | 67 | 130 | 2.0 | 4.0 | 0.00 | 0.00 | 0.00 | 63 | 879.9 |
| 20260906050100 | 67 | 126 | 2.0 | 7.0 | 0.00 | 0.00 | 0.00 | 62 | 880.0 |
| 20260906044600 | 67 | 103 | 4.0 | 8.0 | 0.00 | 0.00 | 0.00 | 62 | 880.0 |
| 20260906043102 | 67 | 109 | 5.0 | 9.0 | 0.00 | 0.00 | 0.00 | 61 | 880.0 |
| 20260906041602 | 67 | 114 | 4.0 | 8.0 | 0.00 | 0.00 | 0.00 | 61 | 879.9 |
| 20260906040058 | 67 | 108 | 5.0 | 8.0 | 0.00 | 0.00 | 0.00 | 60 | 879.7 |
| 20260906034557 | 67 | 102 | 6.0 | 9.0 | 0.00 | 0.00 | 0.00 | 59 | 879.6 |
| 20260906033109 | 68 | 136 | 6.0 | 10.0 | 0.00 | 0.00 | 0.00 | 58 | 879.5 |
| 20260906031555 | 68 | 96 | 4.0 | 11.0 | 0.00 | 0.00 | 0.00 | 57 | 879.4 |
| 20260906030055 | 69 | 123 | 7.0 | 11.0 | 0.00 | 0.00 | 0.00 | 56 | 879.3 |
| 20260906024556 | 69 | 135 | 8.0 | 13.0 | 0.00 | 0.00 | 0.00 | 56 | 879.2 |
| 20260906023056 | 70 | 103 | 7.0 | 12.0 | 0.00 | 0.00 | 0.00 | 55 | 879.1 |
| 20260906021558 | 71 | 122 | 8.0 | 13.0 | 0.00 | 0.00 | 0.00 | 55 | 879.3 |
| 20260906020104 | 72 | 111 | 7.0 | 14.0 | 0.00 | 0.00 | 0.00 | 53 | 879.3 |
| 20260906014554 | 73 | 146 | 8.0 | 14.0 | 0.00 | 0.00 | 0.00 | 52 | 879.4 |
| 20260906013058 | 74 | 107 | 7.0 | 14.0 | 0.00 | 0.00 | 0.00 | 50 | 879.5 |
| 20260906011601 | 75 | 106 | 7.0 | 14.0 | 0.00 | 0.00 | 0.00 | 48 | 879.5 |
| 20260906010049 | 75 | 142 | 8.0 | 15.0 | 0.00 | 0.00 | 0.00 | 48 | 879.5 |
| 20260906004556 | 77 | 120 | 5.0 | 18.0 | 0.00 | 0.00 | 0.00 | 46 | 879.6 |
| 20260906003047 | 77 | 135 | 9.0 | 18.0 | 0.00 | 0.00 | 0.00 | 45 | 879.5 |
| 20260906001548 | 78 | 126 | 9.0 | 15.0 | 0.00 | 0.00 | 0.00 | 45 | 879.5 |
| 20260906000053 | 77 | 165 | 9.0 | 16.0 | 0.00 | 0.00 | 0.00 | 44 | 879.5 |
| 20260905234547 | 79 | 163 | 10.0 | 17.0 | 0.00 | 0.00 | 0.00 | 42 | 879.4 |
| 20260905233044 | 80 | 95 | 10.0 | 18.0 | 0.00 | 0.00 | 0.00 | 40 | 879.6 |
| 20260905231543 | 80 | 66 | 6.0 | 18.0 | 0.00 | 0.00 | 0.00 | 42 | 879.6 |
| 20260905230041 | 80 | 107 | 6.0 | 13.0 | 0.00 | 0.00 | 0.00 | 39 | 879.6 |
| 20260905224548 | 80 | 154 | 10.0 | 19.0 | 0.00 | 0.00 | 0.00 | 40 | 879.6 |
| 20260905223039 | 79 | 74 | 7.0 | 16.0 | 0.00 | 0.00 | 0.00 | 40 | 879.7 |
| 20260905221538 | 80 | 136 | 11.0 | 18.0 | 0.00 | 0.00 | 0.00 | 39 | 879.6 |
| 20260905220037 | 79 | 148 | 9.0 | 16.0 | 0.00 | 0.00 | 0.00 | 40 | 879.9 |
| 20260905214536 | 79 | 159 | 8.0 | 20.0 | 0.00 | 0.00 | 0.00 | 40 | 880.1 |
| 20260905213035 | 79 | 131 | 7.0 | 19.0 | 0.00 | 0.00 | 0.00 | 39 | 880.2 |
| 20260905211544 | 80 | 116 | 4.0 | 16.0 | 0.00 | 0.00 | 0.00 | 39 | 880.3 |
| 20260905210033 | 79 | 121 | 8.0 | 17.0 | 0.00 | 0.00 | 0.00 | 42 | 880.4 |
| 20260905204537 | 78 | 134 | 10.0 | 16.0 | 0.00 | 0.00 | 0.00 | 41 | 880.4 |
| 20260905203031 | 78 | 132 | 8.0 | 16.0 | 0.00 | 0.00 | 0.00 | 42 | 880.5 |
| 20260905201531 | 79 | 155 | 8.0 | 20.0 | 0.00 | 0.00 | 0.00 | 40 | 880.5 |
| 20260905200032 | 80 | 138 | 10.0 | 18.0 | 0.00 | 0.00 | 0.00 | 39 | 880.4 |
| 20260905194527 | 79 | 117 | 6.0 | 12.0 | 0.00 | 0.00 | 0.00 | 39 | 880.6 |
| 20260905193025 | 79 | 152 | 10.0 | 20.0 | 0.00 | 0.00 | 0.00 | 39 | 880.8 |
| 20260905191527 | 79 | 139 | 10.0 | 19.0 | 0.00 | 0.00 | 0.00 | 39 | 880.9 |
| 20260905190024 | 78 | 140 | 6.0 | 18.0 | 0.00 | 0.00 | 0.00 | 40 | 881.0 |
| 20260905184542 | 78 | 123 | 4.0 | 18.0 | 0.00 | 0.00 | 0.00 | 35 | 881.0 |
| 20260905183037 | 78 | 196 | 10.0 | 19.0 | 0.00 | 0.00 | 0.00 | 31 | 881.0 |
| 20260905181522 | 77 | 125 | 10.0 | 19.0 | 0.00 | 0.00 | 0.00 | 32 | 881.0 |
| 20260905180021 | 76 | 115 | 11.0 | 21.0 | 0.00 | 0.00 | 0.00 | 32 | 881.0 |
| 20260905174515 | 76 | 146 | 9.0 | 17.0 | 0.00 | 0.00 | 0.00 | 36 | 880.9 |
| 20260905173012 | 76 | 130 | 11.0 | 19.0 | 0.00 | 0.00 | 0.00 | 36 | 880.7 |
| 20260905171510 | 75 | 174 | 9.0 | 17.0 | 0.00 | 0.00 | 0.00 | 36 | 880.6 |
| 20260905170008 | 75 | 123 | 9.0 | 20.0 | 0.00 | 0.00 | 0.00 | 34 | 880.4 |
| 20260905164506 | 74 | 167 | 10.0 | 22.0 | 0.00 | 0.00 | 0.00 | 33 | 880.3 |
| 20260905163004 | 74 | 140 | 10.0 | 18.0 | 0.00 | 0.00 | 0.00 | 34 | 880.3 |